Dewpoint
57 56 56 56 56 55 54 53 53 54 54 53 53 51 51 48 46 48 48 48 48 48 47 46 45 45 44 44 44 44 43 42 42 42 41 40 40 40 41 41 42 41
56 55 54 55 54 52 53 54 54 54 53 52 51 49 46 46 45 46 46 46 46 45 44 43 43 43 43 43 43 42 41 42 41 41 38 38 38 38 38 39 39 39
54 54 54 54 54 52 52 53 53 52 51 49 47 47 45 45 45 44 45 44 43 41 41 41 41 41 41 41 40 39 39 39 39 38 37 37 37 36 35 37 37 36
54 54 54 54 54 52 52 51 50 49 47 46 46 45 45 44 44 43 42 40 40 39 38 39 39 38 38 38 37 36 36 36 36 34 33 32 32 34 33 34 34 33
54 54 54 54 53 51 50 50 48 48 47 46 44 43 43 43 42 40 38 37 38 36 36 36 35 35 34 34 35 33 33 32 31 31 29 30 31 31 30 30 30 30
52 53 52 52 51 50 50 49 48 47 45 44 44 43 43 42 40 38 36 36 35 35 34 34 34 33 34 33 32 32 31 31 30 30 30 29 29 29 30 30 29 28
51 51 50 50 49 49 49 48 46 45 45 44 42 41 40 39 37 36 36 35 35 35 34 34 33 32 32 32 32 31 31 30 30 30 29 28 28 28 28 29 29 27
49 49 49 48 48 47 46 45 43 43 41 40 41 38 38 37 36 35 35 34 34 33 33 33 32 30 31 31 31 31 30 30 28 29 28 28 27 27 28 28 27 26
47 46 46 46 45 44 43 42 41 40 40 40 38 36 35 36 35 34 34 34 33 33 32 31 31 31 31 31 31 30 30 29 28 28 27 27 27 26 26 26 26 26
44 43 44 44 43 42 41 40 39 38 38 38 36 35 35 33 34 33 33 33 32 31 31 30 30 30 31 30 30 29 29 29 28 27 27 27 27 27 26 26 26 25
42 42 42 42 41 40 39 38 37 37 37 36 35 34 33 33 32 32 32 31 30 29 29 29 29 29 29 29 29 29 28 28 28 28 27 27 27 27 27 26 26 25
41 41 40 40 39 38 37 37 37 36 35 34 34 33 32 31 31 30 29 28 28 27 27 28 28 28 28 28 28 28 28 28 28 28 28 27 27 27 26 26 25 25
39 39 39 38 38 37 36 36 35 35 34 33 32 31 30 28 28 27 27 27 26 26 27 27 28 28 28 28 28 28 28 27 28 27 27 26 26 26 26 26 25 25
38 37 37 37 36 36 35 34 33 32 31 30 29 28 27 26 26 26 25 25 25 26 27 28 28 28 28 28 28 28 27 27 26 26 25 25 25 25 25 24 24 24
36 36 35 35 34 33 32 31 30 29 28 27 26 26 26 25 25 24 23 24 25 26 27 28 28 28 28 28 27 27 27 26 25 25 24 23 23 23 23 23 23 23
35 34 34 33 32 31 30 29 28 27 26 25 25 25 24 24 23 22 22 23 24 25 27 29 30 30 30 31 30 27 26 25 25 24 23 23 22 22 22 22 22 22
34 33 32 31 30 29 28 27 26 26 25 24 24 24 23 22 22 22 22 22 24 26 27 29 30 32 33 31 30 28 25 24 23 23 23 22 21 21 21 21 21 22
33 31 30 29 28 27 26 26 25 25 24 23 23 23 23 22 21 21 21 22 24 26 27 29 30 33 32 30 28 28 26 24 23 23 23 22 22 21 21 21 21 21
31 30 29 27 26 26 25 26 25 24 24 24 23 22 22 22 21 21 21 21 23 25 27 28 30 33 32 30 28 28 27 24 23 22 22 22 21 21 21 21 20 20
30 29 27 26 25 25 25 25 24 24 23 23 23 22 22 22 22 21 21 21 23 25 27 28 29 32 31 29 28 28 27 24 22 22 21 21 21 21 20 20 20 20
28 27 26 25 24 24 24 23 23 23 23 23 22 22 22 22 21 21 21 21 23 25 26 27 28 31 30 29 28 27 26 24 22 22 21 21 21 20 20 20 20 20
27 25 24 24 24 24 23 23 23 23 22 22 22 21 22 22 21 21 21 21 22 24 25 26 28 30 30 29 28 27 26 23 22 21 21 21 20 20 20 20 20 20
26 25 24 24 24 23 23 22 22 22 21 22 21 22 21 21 21 21 21 21 21 22 24 25 26 29 29 29 27 26 24 23 22 22 22 21 20 20 20 19 19 19
25 24 24 24 24 23 22 22 22 22 21 22 21 21 21 21 21 21 21 21 20 20 22 23 24 27 28 28 26 25 23 22 23 22 23 22 21 20 20 19 19 20
24 24 24 24 23 23 22 21 21 21 21 21 21 21 20 21 21 20 20 20 20 20 22 22 23 26 27 28 27 25 23 23 22 22 22 22 21 20 20 20 19 19
24 24 23 23 23 22 21 21 21 20 20 20 20 20 20 20 19 19 19 19 19 19 19 19 21 22 26 27 27 26 24 23 23 22 22 21 21 21 20 20 19 19